Погода в Вила-Велье

Бразилия     20°19′49″S   40°17′31″W
темп.,
°C
ветер,
м/с
пор.,
м/с
влажн.,
%
обл.,
%
осадки,
мм/ч
давл.,
гПа
погр.,
м
13 июня, вс
вс1300:00+20юз577824 0.0 1019526
03:00+19юз578043 0.1 1018446
06:00+19юз467588 0.1 1020400
09:00+21ююз57695 0.1 1022762
12:00+23ю786199 0.0 10211070
15:00+23ю8107058 0.0 1019950
18:00+21ююз71072100 0.0 10211056
21:00+21юз5874100 0.1 1022857
14 июня, пн
пн1400:00+20юз587866 0.1 1022595
03:00+18юз578194 0.1 1021457
06:00+18юз578163 0.0 1022394
09:00+21юз576634 0.1 1023668
12:00+23ю5556100 0.0 1022955
15:00+22ю66618 0.0 1020704
18:00+21ю57714 0.0 1021701
21:00+20юз45754 0.0 1022505
15 июня, вт
вт1500:00+18зюз33790 0.0 1021200
03:00+18зюз238084 0.0 1019139
06:00+18з22805 0.0 1020135
09:00+20зюз126991 0.0 1021279
12:00+22юв2265100 0.0 1019733
15:00+22вюв3263100 0.0 1017499
18:00+21ююз116224 0.0 1018371
21:00+20юз22690 0.0 1018327
16 июня, ср
ср1600:00+19зюз22770 0.0 1018216
03:00+18зюз22820 0.0 1017155
06:00+18юз33830 0.0 1018207
09:00+20ююз34752 0.0 1020470
12:00+23ю556729 0.0 1018875
15:00+23ю55637 0.0 1016882
18:00+22ю466930 0.0 1018704
21:00+21ююз457510 0.0 1019614
17 июня, чт
чт1700:00+20юз358142 0.1 1019412
03:00+20юз468097 0.2 1019412
06:00+19юз57830 0.0 1020436
09:00+22юз57680 0.0 1021746
12:00+24ю67649 0.0 1020989
15:00+23ю677218 0.0 1019702
18:00+22ю457822 0.2 1020607
21:00+21ююз238359 0.7 1022417